SWA1997 KDEN-KPDX

Flight info

Callsign SWA1997
Flight time 2h 18m
Altitude 34000
Route ZIMMR4 CHNGY OCS PIH HLE JOTBA HHOOD6
Aircraft B738/M-SADE2E3GIJ4RWZ/LB1D1

Departure

Time 2026-05-06 23:50
Airport Denver International Airport (KDEN)

Arrival

Time 2026-05-07 02:09
Airport Portland International Airport (KPDX)
Time Latitude Longitude Altitude Speed Heading
2026-05-06 23:03 39.86359 -104.67055 5394 ft 0 kts 180°
2026-05-06 23:32 39.86378 -104.67055 5374 ft 4 kts 180°
2026-05-06 23:32 39.86405 -104.67055 5372 ft 4 kts 180°
2026-05-06 23:32 39.86418 -104.67055 5370 ft 1 kts 180°
2026-05-06 23:40 39.86415 -104.67061 5374 ft 1 kts 234°
2026-05-06 23:40 39.86413 -104.67103 5374 ft 10 kts 274°
2026-05-06 23:40 39.86414 -104.67214 5374 ft 13 kts 270°
2026-05-06 23:41 39.86414 -104.67326 5374 ft 12 kts 269°
2026-05-06 23:41 39.86415 -104.67436 5374 ft 12 kts 271°
2026-05-06 23:41 39.86415 -104.67543 5374 ft 12 kts 270°
2026-05-06 23:41 39.86415 -104.67648 5374 ft 11 kts 270°
2026-05-06 23:42 39.86416 -104.67749 5374 ft 11 kts 271°
2026-05-06 23:42 39.86417 -104.67849 5374 ft 11 kts 271°
2026-05-06 23:42 39.86418 -104.67950 5374 ft 12 kts 270°
2026-05-06 23:42 39.86410 -104.68011 5372 ft 3 kts 227°
2026-05-06 23:43 39.86380 -104.68020 5373 ft 7 kts 190°
2026-05-06 23:43 39.86324 -104.68024 5374 ft 9 kts 181°
2026-05-06 23:43 39.86257 -104.68025 5374 ft 10 kts 181°
2026-05-06 23:43 39.86180 -104.68026 5373 ft 12 kts 181°
2026-05-06 23:44 39.86145 -104.68046 5372 ft 4 kts 234°
2026-05-06 23:44 39.86133 -104.68137 5373 ft 15 kts 270°
2026-05-06 23:44 39.86138 -104.68274 5374 ft 15 kts 269°
2026-05-06 23:44 39.86103 -104.68389 5369 ft 14 kts 206°
2026-05-06 23:45 39.86006 -104.68395 5371 ft 14 kts 181°
2026-05-06 23:45 39.85912 -104.68398 5371 ft 13 kts 180°
2026-05-06 23:45 39.85792 -104.68398 5373 ft 22 kts 180°
2026-05-06 23:45 39.85692 -104.68430 5373 ft 15 kts 233°
2026-05-06 23:46 39.85621 -104.68513 5369 ft 14 kts 186°
2026-05-06 23:46 39.85523 -104.68517 5370 ft 14 kts 180°
2026-05-06 23:46 39.85431 -104.68517 5371 ft 14 kts 181°
2026-05-06 23:46 39.85328 -104.68519 5372 ft 16 kts 180°
2026-05-06 23:47 39.85231 -104.68532 5372 ft 12 kts 211°
2026-05-06 23:47 39.85200 -104.68664 5364 ft 20 kts 268°
2026-05-06 23:47 39.85201 -104.68874 5356 ft 26 kts 269°
2026-05-06 23:47 39.85196 -104.69120 5350 ft 29 kts 268°
2026-05-06 23:48 39.85197 -104.69373 5337 ft 27 kts 272°
2026-05-06 23:48 39.85202 -104.69504 5337 ft 0 kts 272°
2026-05-06 23:48 39.85203 -104.69522 5336 ft 7 kts 272°
2026-05-06 23:48 39.85206 -104.69624 5333 ft 9 kts 274°
2026-05-06 23:49 39.85246 -104.69679 5337 ft 9 kts 348°
2026-05-06 23:49 39.85308 -104.69672 5334 ft 9 kts 17°
2026-05-06 23:49 39.85438 -104.69653 5335 ft 30 kts
2026-05-06 23:49 39.85829 -104.69652 5330 ft 88 kts
2026-05-06 23:50 39.86634 -104.69643 5322 ft 142 kts
2026-05-06 23:50 39.89009 -104.69591 5992 ft 181 kts
2026-05-06 23:50 39.90291 -104.69558 6698 ft 188 kts
2026-05-06 23:51 39.91592 -104.69767 7265 ft 192 kts 334°
2026-05-06 23:51 39.92579 -104.70947 7624 ft 202 kts 292°
2026-05-06 23:51 39.92913 -104.72758 7912 ft 215 kts 276°
2026-05-06 23:51 39.93024 -104.74795 8044 ft 236 kts 273°
2026-05-06 23:52 39.93094 -104.76999 8286 ft 253 kts 272°
2026-05-06 23:52 39.93165 -104.79382 8589 ft 270 kts 273°
2026-05-06 23:52 39.93239 -104.81764 9263 ft 274 kts 273°
2026-05-06 23:52 39.93319 -104.84242 10127 ft 274 kts 274°
2026-05-06 23:53 39.93407 -104.86784 10482 ft 292 kts 274°
2026-05-06 23:53 39.93504 -104.89496 10656 ft 314 kts 274°
2026-05-06 23:53 39.93611 -104.92433 10820 ft 335 kts 274°
2026-05-06 23:53 39.93726 -104.95572 11180 ft 348 kts 274°
2026-05-06 23:54 39.93839 -104.98693 11768 ft 351 kts 274°
2026-05-06 23:54 39.93953 -105.01862 12441 ft 352 kts 274°
2026-05-06 23:54 39.94065 -105.04975 13505 ft 340 kts 274°
2026-05-06 23:54 39.94168 -105.07836 13825 ft 352 kts 274°
2026-05-06 23:55 39.94268 -105.10567 14246 ft 357 kts 274°
2026-05-06 23:55 39.94385 -105.13823 14770 ft 362 kts 275°
2026-05-06 23:55 39.94502 -105.17118 15294 ft 367 kts 275°
2026-05-06 23:55 39.94620 -105.20468 15834 ft 372 kts 275°
2026-05-06 23:56 39.94738 -105.23850 16359 ft 377 kts 276°
2026-05-06 23:56 39.94857 -105.27281 16867 ft 382 kts 276°
2026-05-06 23:56 39.94977 -105.30755 17325 ft 386 kts 276°
2026-05-06 23:56 39.95097 -105.34277 17844 ft 391 kts 277°
2026-05-06 23:57 39.95218 -105.37841 18337 ft 396 kts 277°
2026-05-06 23:57 39.95395 -105.41438 18741 ft 399 kts 280°
2026-05-06 23:57 39.95682 -105.45048 19208 ft 402 kts 281°
2026-05-06 23:57 39.95994 -105.48675 19674 ft 404 kts 282°
2026-05-06 23:58 39.96296 -105.52337 20134 ft 408 kts 281°
2026-05-06 23:58 39.96587 -105.56031 20560 ft 412 kts 281°
2026-05-06 23:58 39.96871 -105.59757 21000 ft 415 kts 281°
2026-05-06 23:58 39.97155 -105.63510 21443 ft 418 kts 282°
2026-05-06 23:59 39.97432 -105.67289 21794 ft 421 kts 281°
2026-05-06 23:59 39.97657 -105.71112 22188 ft 425 kts 280°
2026-05-06 23:59 39.97851 -105.74976 22615 ft 428 kts 279°
2026-05-06 23:59 39.98031 -105.78861 23037 ft 431 kts 279°
2026-05-07 00:00 39.98212 -105.82774 23425 ft 434 kts 280°
2026-05-07 00:00 39.98398 -105.86712 23789 ft 437 kts 280°
2026-05-07 00:00 39.98588 -105.90684 24108 ft 440 kts 280°
2026-05-07 00:00 39.98716 -105.93318 24332 ft 440 kts 280°
2026-05-07 00:01 39.98974 -105.98666 24787 ft 443 kts 280°
2026-05-07 00:01 39.99169 -106.02681 25106 ft 445 kts 280°
2026-05-07 00:01 39.99363 -106.06714 25417 ft 447 kts 280°
2026-05-07 00:01 39.99544 -106.10506 25700 ft 448 kts 280°
2026-05-07 00:02 39.99737 -106.14571 25984 ft 450 kts 281°
2026-05-07 00:02 39.99929 -106.18657 26242 ft 452 kts 281°
2026-05-07 00:02 40.00115 -106.22653 26533 ft 454 kts 281°
2026-05-07 00:02 40.00305 -106.26763 26816 ft 456 kts 281°
2026-05-07 00:03 40.00494 -106.30893 27092 ft 457 kts 281°
2026-05-07 00:03 40.00684 -106.35046 27363 ft 459 kts 281°
2026-05-07 00:03 40.00872 -106.39206 27623 ft 461 kts 281°
2026-05-07 00:03 40.01261 -106.43320 27859 ft 453 kts 290°
2026-05-07 00:04 40.02252 -106.47170 28138 ft 444 kts 301°
2026-05-07 00:04 40.03674 -106.50631 28457 ft 434 kts 310°
2026-05-07 00:04 40.05515 -106.53692 28881 ft 426 kts 316°
2026-05-07 00:04 40.07393 -106.56562 29280 ft 423 kts 316°
2026-05-07 00:05 40.09310 -106.59479 29637 ft 423 kts 316°
2026-05-07 00:05 40.11217 -106.62393 29989 ft 422 kts 316°
2026-05-07 00:05 40.13113 -106.65307 30349 ft 420 kts 316°
2026-05-07 00:05 40.14995 -106.68220 30631 ft 420 kts 316°
2026-05-07 00:06 40.16876 -106.71143 30871 ft 420 kts 316°
2026-05-07 00:06 40.18754 -106.74071 31152 ft 420 kts 316°
2026-05-07 00:06 40.20610 -106.76971 31452 ft 419 kts 316°
2026-05-07 00:06 40.22476 -106.79893 31771 ft 417 kts 316°
2026-05-07 00:07 40.24333 -106.82804 32081 ft 417 kts 316°
2026-05-07 00:07 40.26187 -106.85712 32394 ft 416 kts 316°
2026-05-07 00:07 40.28039 -106.88619 32711 ft 415 kts 316°
2026-05-07 00:07 40.29882 -106.91516 33021 ft 413 kts 316°
2026-05-07 00:08 40.31720 -106.94408 33312 ft 413 kts 316°
2026-05-07 00:08 40.33559 -106.97301 33589 ft 413 kts 316°
2026-05-07 00:08 40.35396 -107.00195 33898 ft 412 kts 316°
2026-05-07 00:08 40.37179 -107.03007 34200 ft 411 kts 316°
2026-05-07 00:09 40.40852 -107.08805 34185 ft 413 kts 316°
2026-05-07 00:09 40.44502 -107.14583 34194 ft 409 kts 316°
2026-05-07 00:10 40.48126 -107.20329 34191 ft 407 kts 316°
2026-05-07 00:10 40.51733 -107.26057 34187 ft 406 kts 316°
2026-05-07 00:11 40.55328 -107.31776 34183 ft 406 kts 316°
2026-05-07 00:11 40.58923 -107.37504 34182 ft 406 kts 316°
2026-05-07 00:12 40.62522 -107.43251 34175 ft 407 kts 316°
2026-05-07 00:12 40.66122 -107.49010 34175 ft 408 kts 316°
2026-05-07 00:13 40.69703 -107.54750 34169 ft 409 kts 315°
2026-05-07 00:13 40.73342 -107.60593 34160 ft 410 kts 315°
2026-05-07 00:14 40.76929 -107.66366 34159 ft 410 kts 315°
2026-05-07 00:14 40.80543 -107.72193 34165 ft 410 kts 315°
2026-05-07 00:15 40.84154 -107.78025 34165 ft 410 kts 315°
2026-05-07 00:15 40.87762 -107.83864 34162 ft 410 kts 315°
2026-05-07 00:16 40.90759 -107.88722 34148 ft 410 kts 315°
2026-05-07 00:16 40.94357 -107.94565 34148 ft 410 kts 315°
2026-05-07 00:17 40.97950 -108.00412 34143 ft 409 kts 315°
2026-05-07 00:17 41.01535 -108.06257 34157 ft 408 kts 315°
2026-05-07 00:18 41.05104 -108.12085 34149 ft 407 kts 315°
2026-05-07 00:18 41.08670 -108.17920 34151 ft 407 kts 315°
2026-05-07 00:19 41.12229 -108.23754 34148 ft 407 kts 315°
2026-05-07 00:19 41.15753 -108.29542 34156 ft 406 kts 315°
2026-05-07 00:20 41.19298 -108.35378 34158 ft 405 kts 315°
2026-05-07 00:20 41.22834 -108.41208 34162 ft 405 kts 315°
2026-05-07 00:21 41.26364 -108.47039 34163 ft 405 kts 315°
2026-05-07 00:21 41.29884 -108.52866 34164 ft 404 kts 314°
2026-05-07 00:22 41.33405 -108.58705 34177 ft 404 kts 314°
2026-05-07 00:22 41.36927 -108.64556 34165 ft 405 kts 314°
2026-05-07 00:23 41.40393 -108.70326 34170 ft 405 kts 314°
2026-05-07 00:23 41.43912 -108.76195 34165 ft 406 kts 314°
2026-05-07 00:24 41.47432 -108.82078 34161 ft 406 kts 314°
2026-05-07 00:24 41.50951 -108.87973 34165 ft 406 kts 314°
2026-05-07 00:25 41.54469 -108.93875 34168 ft 406 kts 314°
2026-05-07 00:25 41.57986 -108.99790 34159 ft 407 kts 313°
2026-05-07 00:26 41.60911 -109.06356 34172 ft 415 kts 303°
2026-05-07 00:26 41.63467 -109.13286 34165 ft 415 kts 302°
2026-05-07 00:27 41.66019 -109.20205 34161 ft 415 kts 302°
2026-05-07 00:27 41.68578 -109.27111 34154 ft 414 kts 302°
2026-05-07 00:28 41.71137 -109.34006 34147 ft 413 kts 302°
2026-05-07 00:28 41.73672 -109.40847 34135 ft 413 kts 302°
2026-05-07 00:29 41.76220 -109.47739 34113 ft 413 kts 302°
2026-05-07 00:30 41.81291 -109.61508 34095 ft 411 kts 302°
2026-05-07 00:30 41.83816 -109.68390 34094 ft 411 kts 302°
2026-05-07 00:31 41.86336 -109.75272 34086 ft 411 kts 302°
2026-05-07 00:31 41.88794 -109.82001 34082 ft 411 kts 302°
2026-05-07 00:32 41.91202 -109.88612 34075 ft 411 kts 302°
2026-05-07 00:32 41.93712 -109.95515 34076 ft 412 kts 302°
2026-05-07 00:33 41.96221 -110.02434 34069 ft 412 kts 301°
2026-05-07 00:33 41.98728 -110.09366 34068 ft 413 kts 301°
2026-05-07 00:34 42.01157 -110.16098 34079 ft 413 kts 301°
2026-05-07 00:34 42.03657 -110.23043 34094 ft 413 kts 301°
2026-05-07 00:35 42.06152 -110.29991 34102 ft 413 kts 301°
2026-05-07 00:35 42.08645 -110.36951 34104 ft 413 kts 301°
2026-05-07 00:36 42.11136 -110.43923 34099 ft 413 kts 301°
2026-05-07 00:36 42.13624 -110.50903 34103 ft 413 kts 301°
2026-05-07 00:37 42.16105 -110.57884 34101 ft 413 kts 301°
2026-05-07 00:37 42.18580 -110.64860 34092 ft 413 kts 301°
2026-05-07 00:38 42.21049 -110.71841 34095 ft 412 kts 300°
2026-05-07 00:38 42.23498 -110.78780 34087 ft 412 kts 300°
2026-05-07 00:39 42.25957 -110.85764 34094 ft 412 kts 300°
2026-05-07 00:39 42.28360 -110.92609 34086 ft 412 kts 300°
2026-05-07 00:40 42.30812 -110.99608 34108 ft 412 kts 300°
2026-05-07 00:40 42.33262 -111.06620 34082 ft 413 kts 300°
2026-05-07 00:41 42.35707 -111.13637 34107 ft 412 kts 300°
2026-05-07 00:41 42.38147 -111.20655 34093 ft 412 kts 300°
2026-05-07 00:42 42.40580 -111.27673 34098 ft 412 kts 300°
2026-05-07 00:42 42.43009 -111.34696 34109 ft 412 kts 300°
2026-05-07 00:43 42.45434 -111.41724 34098 ft 412 kts 300°
2026-05-07 00:43 42.47854 -111.48756 34106 ft 412 kts 299°
2026-05-07 00:44 42.50267 -111.55786 34097 ft 411 kts 299°
2026-05-07 00:44 42.52675 -111.62821 34084 ft 411 kts 299°
2026-05-07 00:45 42.55054 -111.69788 34097 ft 411 kts 299°
2026-05-07 00:45 42.57453 -111.76831 34095 ft 411 kts 299°
2026-05-07 00:46 42.59848 -111.83880 34095 ft 411 kts 299°
2026-05-07 00:46 42.62240 -111.90939 34095 ft 412 kts 299°
2026-05-07 00:47 42.64633 -111.98017 34093 ft 412 kts 299°
2026-05-07 00:47 42.67020 -112.05100 34094 ft 412 kts 299°
2026-05-07 00:48 42.69406 -112.12194 34092 ft 413 kts 299°
2026-05-07 00:48 42.71792 -112.19311 34083 ft 413 kts 298°
2026-05-07 00:49 42.74155 -112.26374 34082 ft 412 kts 298°
2026-05-07 00:49 42.76521 -112.33468 34081 ft 411 kts 298°
2026-05-07 00:50 42.78879 -112.40556 34079 ft 411 kts 298°
2026-05-07 00:50 42.81227 -112.47629 34091 ft 409 kts 298°
2026-05-07 00:51 42.83567 -112.54699 34096 ft 409 kts 298°
2026-05-07 00:51 42.85908 -112.61785 34091 ft 411 kts 298°
2026-05-07 00:52 42.88208 -112.68931 34090 ft 413 kts 297°
2026-05-07 00:52 42.90360 -112.76216 34083 ft 415 kts 296°
2026-05-07 00:53 42.92494 -112.83539 34073 ft 416 kts 296°
2026-05-07 00:53 42.94646 -112.90880 34056 ft 417 kts 296°
2026-05-07 00:54 42.96810 -112.98242 34036 ft 418 kts 296°
2026-05-07 00:54 42.98977 -113.05624 34011 ft 419 kts 296°
2026-05-07 00:55 43.01139 -113.13010 34012 ft 419 kts 296°
2026-05-07 00:55 43.03298 -113.20408 34008 ft 419 kts 296°
2026-05-07 00:56 43.05452 -113.27810 33993 ft 419 kts 296°
2026-05-07 00:56 43.07597 -113.35202 33995 ft 418 kts 296°
2026-05-07 00:57 43.09735 -113.42593 33986 ft 418 kts 296°
2026-05-07 00:57 43.11868 -113.49988 33986 ft 417 kts 296°
2026-05-07 00:58 43.13991 -113.57369 33981 ft 417 kts 296°
2026-05-07 00:58 43.16108 -113.64751 33974 ft 416 kts 296°
2026-05-07 00:59 43.19259 -113.75776 33975 ft 416 kts 296°
2026-05-07 01:00 43.21360 -113.83159 33967 ft 416 kts 296°
2026-05-07 01:00 43.23459 -113.90553 33969 ft 416 kts 296°
2026-05-07 01:01 43.25553 -113.97952 33981 ft 416 kts 296°
2026-05-07 01:01 43.27587 -114.05159 34004 ft 416 kts 296°
2026-05-07 01:02 43.29674 -114.12577 34025 ft 416 kts 296°
2026-05-07 01:02 43.31756 -114.19998 34045 ft 416 kts 296°
2026-05-07 01:03 43.33887 -114.27347 34071 ft 413 kts 298°
2026-05-07 01:03 43.35857 -114.33367 34069 ft 412 kts 300°
2026-05-07 01:04 43.38233 -114.40463 34075 ft 411 kts 300°
2026-05-07 01:04 43.40599 -114.47599 34074 ft 410 kts 300°
2026-05-07 01:05 43.42946 -114.54752 34062 ft 410 kts 299°
2026-05-07 01:05 43.45281 -114.61915 34060 ft 410 kts 299°
2026-05-07 01:06 43.47612 -114.69090 34043 ft 411 kts 299°
2026-05-07 01:06 43.49941 -114.76280 34042 ft 411 kts 298°
2026-05-07 01:07 43.52270 -114.83486 34035 ft 412 kts 298°
2026-05-07 01:07 43.54598 -114.90712 34038 ft 413 kts 298°
2026-05-07 01:08 43.56924 -114.97949 34039 ft 413 kts 298°
2026-05-07 01:08 43.59250 -115.05206 34036 ft 414 kts 298°
2026-05-07 01:09 43.61569 -115.12464 34046 ft 413 kts 298°
2026-05-07 01:09 43.63880 -115.19716 34044 ft 412 kts 297°
2026-05-07 01:10 43.66174 -115.26936 34044 ft 410 kts 297°
2026-05-07 01:10 43.68457 -115.34139 34036 ft 409 kts 297°
2026-05-07 01:11 43.70726 -115.41317 34043 ft 408 kts 297°
2026-05-07 01:11 43.72991 -115.48500 34046 ft 407 kts 297°
2026-05-07 01:12 43.75249 -115.55681 34032 ft 407 kts 297°
2026-05-07 01:12 43.77505 -115.62874 34023 ft 407 kts 297°
2026-05-07 01:13 43.79735 -115.70008 34019 ft 406 kts 297°
2026-05-07 01:13 43.81973 -115.77190 34020 ft 406 kts 297°
2026-05-07 01:14 43.84208 -115.84376 34015 ft 406 kts 297°
2026-05-07 01:14 43.86439 -115.91569 34025 ft 406 kts 297°
2026-05-07 01:15 43.88665 -115.98769 34028 ft 407 kts 297°
2026-05-07 01:15 43.90896 -116.06001 34018 ft 407 kts 297°
2026-05-07 01:16 43.93115 -116.13222 34014 ft 408 kts 297°
2026-05-07 01:16 43.95340 -116.20476 34007 ft 409 kts 296°
2026-05-07 01:17 43.97564 -116.27749 34021 ft 410 kts 296°
2026-05-07 01:17 43.99792 -116.35053 33999 ft 412 kts 296°
2026-05-07 01:18 44.01966 -116.42205 34020 ft 411 kts 296°
2026-05-07 01:18 44.04192 -116.49547 34002 ft 413 kts 296°
2026-05-07 01:19 44.06419 -116.56913 34002 ft 414 kts 296°
2026-05-07 01:19 44.08645 -116.64297 34003 ft 413 kts 296°
2026-05-07 01:20 44.10041 -116.68939 34006 ft 414 kts 296°
2026-05-07 01:20 44.10798 -116.71461 34005 ft 414 kts 296°
2026-05-07 01:21 44.13018 -116.78869 34012 ft 413 kts 296°
2026-05-07 01:21 44.15206 -116.86192 34009 ft 411 kts 296°
2026-05-07 01:22 44.17397 -116.93543 34002 ft 411 kts 296°
2026-05-07 01:22 44.19581 -117.00892 34002 ft 410 kts 296°
2026-05-07 01:23 44.21753 -117.08223 34005 ft 409 kts 296°
2026-05-07 01:23 44.23914 -117.15538 34009 ft 408 kts 295°
2026-05-07 01:24 44.26074 -117.22868 34013 ft 408 kts 295°
2026-05-07 01:24 44.28230 -117.30208 34017 ft 409 kts 295°
2026-05-07 01:25 44.30383 -117.37557 34015 ft 410 kts 295°
2026-05-07 01:25 44.32539 -117.44940 34025 ft 411 kts 295°
2026-05-07 01:26 44.34698 -117.52355 34019 ft 413 kts 295°
2026-05-07 01:26 44.36861 -117.59806 34021 ft 414 kts 295°
2026-05-07 01:27 44.39024 -117.67277 34023 ft 415 kts 295°
2026-05-07 01:27 44.41185 -117.74767 34025 ft 416 kts 295°
2026-05-07 01:28 44.43343 -117.82270 34024 ft 416 kts 295°
2026-05-07 01:28 44.45496 -117.89776 34026 ft 415 kts 295°
2026-05-07 01:29 44.47641 -117.97277 34029 ft 415 kts 295°
2026-05-07 01:29 44.49778 -118.04773 34032 ft 414 kts 295°
2026-05-07 01:30 44.51903 -118.12252 34043 ft 412 kts 294°
2026-05-07 01:30 44.54005 -118.19671 34045 ft 411 kts 294°
2026-05-07 01:31 44.56111 -118.27123 34064 ft 411 kts 294°
2026-05-07 01:31 44.58208 -118.34567 34070 ft 410 kts 294°
2026-05-07 01:32 44.60300 -118.42018 34074 ft 410 kts 294°
2026-05-07 01:32 44.62388 -118.49475 34071 ft 411 kts 294°
2026-05-07 01:33 44.64473 -118.56944 34080 ft 411 kts 294°
2026-05-07 01:33 44.66553 -118.64420 34080 ft 411 kts 294°
2026-05-07 01:34 44.68634 -118.71923 34069 ft 412 kts 294°
2026-05-07 01:34 44.70713 -118.79441 34065 ft 413 kts 294°
2026-05-07 01:35 44.72790 -118.86971 34046 ft 414 kts 294°
2026-05-07 01:35 44.74866 -118.94526 34049 ft 414 kts 294°
2026-05-07 01:36 44.76939 -119.02091 34045 ft 414 kts 294°
2026-05-07 01:36 44.79008 -119.09667 34038 ft 414 kts 294°
2026-05-07 01:37 44.81068 -119.17233 34044 ft 414 kts 293°
2026-05-07 01:37 44.83120 -119.24796 34044 ft 413 kts 293°
2026-05-07 01:38 44.85164 -119.32350 34043 ft 412 kts 293°
2026-05-07 01:38 44.87187 -119.39849 34050 ft 412 kts 293°
2026-05-07 01:39 44.89216 -119.47397 34043 ft 411 kts 293°
2026-05-07 01:39 44.91237 -119.54935 34051 ft 411 kts 293°
2026-05-07 01:40 44.93253 -119.62482 34025 ft 411 kts 293°
2026-05-07 01:40 44.95270 -119.70052 33864 ft 415 kts 293°
2026-05-07 01:40 44.96282 -119.73861 33440 ft 411 kts 293°
2026-05-07 01:41 44.97270 -119.77591 33025 ft 402 kts 292°
2026-05-07 01:41 44.98240 -119.81263 32573 ft 396 kts 292°
2026-05-07 01:41 44.99199 -119.84890 32082 ft 393 kts 293°
2026-05-07 01:41 45.00148 -119.88482 31617 ft 390 kts 292°
2026-05-07 01:42 45.01091 -119.92058 31145 ft 387 kts 292°
2026-05-07 01:42 45.02026 -119.95608 30690 ft 384 kts 292°
2026-05-07 01:42 45.02954 -119.99138 30232 ft 382 kts 292°
2026-05-07 01:42 45.03873 -120.02639 29735 ft 379 kts 292°
2026-05-07 01:43 45.04787 -120.06126 29218 ft 382 kts 292°
2026-05-07 01:43 45.05733 -120.09730 28719 ft 398 kts 292°
2026-05-07 01:43 45.06694 -120.13404 28226 ft 398 kts 292°
2026-05-07 01:43 45.07613 -120.16931 27748 ft 397 kts 292°
2026-05-07 01:44 45.08565 -120.20588 27262 ft 395 kts 292°
2026-05-07 01:44 45.09512 -120.24232 26776 ft 393 kts 292°
2026-05-07 01:44 45.10453 -120.27857 26308 ft 391 kts 291°
2026-05-07 01:44 45.11388 -120.31463 25843 ft 389 kts 291°
2026-05-07 01:45 45.12315 -120.35044 25391 ft 387 kts 291°
2026-05-07 01:45 45.13238 -120.38616 24948 ft 385 kts 291°
2026-05-07 01:45 45.14153 -120.42162 24502 ft 383 kts 291°
2026-05-07 01:45 45.14986 -120.45390 24154 ft 379 kts 291°
2026-05-07 01:46 45.15891 -120.48906 24102 ft 381 kts 291°
2026-05-07 01:46 45.16815 -120.52416 24051 ft 380 kts 294°
2026-05-07 01:46 45.17914 -120.55625 23826 ft 379 kts 298°
2026-05-07 01:46 45.19176 -120.58862 23596 ft 373 kts 300°
2026-05-07 01:47 45.20459 -120.62051 23329 ft 371 kts 300°
2026-05-07 01:47 45.21709 -120.65168 23066 ft 371 kts 300°
2026-05-07 01:47 45.22954 -120.68312 22804 ft 370 kts 299°
2026-05-07 01:47 45.24198 -120.71490 22542 ft 368 kts 299°
2026-05-07 01:48 45.25448 -120.74713 22272 ft 367 kts 298°
2026-05-07 01:48 45.26565 -120.77610 22044 ft 366 kts 298°
2026-05-07 01:48 45.27811 -120.80855 21778 ft 365 kts 298°
2026-05-07 01:48 45.29020 -120.84007 21412 ft 362 kts 298°
2026-05-07 01:49 45.30216 -120.87133 20961 ft 358 kts 298°
2026-05-07 01:49 45.31017 -120.89228 20612 ft 356 kts 298°
2026-05-07 01:49 45.32370 -120.92772 20043 ft 353 kts 298°
2026-05-07 01:49 45.33537 -120.95830 19560 ft 351 kts 297°
2026-05-07 01:50 45.34698 -120.98874 19084 ft 349 kts 297°
2026-05-07 01:50 45.35853 -121.01904 18593 ft 348 kts 297°
2026-05-07 01:50 45.37001 -121.04921 18078 ft 347 kts 297°
2026-05-07 01:50 45.38143 -121.07928 17536 ft 345 kts 297°
2026-05-07 01:51 45.39286 -121.10935 16892 ft 347 kts 297°
2026-05-07 01:51 45.40429 -121.13943 16370 ft 345 kts 297°
2026-05-07 01:51 45.41568 -121.16943 15877 ft 343 kts 297°
2026-05-07 01:51 45.42690 -121.19924 15398 ft 341 kts 295°
2026-05-07 01:52 45.43290 -121.21983 15076 ft 339 kts 288°
2026-05-07 01:52 45.43933 -121.25198 14618 ft 337 kts 285°
2026-05-07 01:52 45.44523 -121.28429 14139 ft 336 kts 284°
2026-05-07 01:52 45.45118 -121.31638 13628 ft 335 kts 285°
2026-05-07 01:53 45.45732 -121.34835 13156 ft 333 kts 285°
2026-05-07 01:53 45.46340 -121.37948 13029 ft 320 kts 285°
2026-05-07 01:53 45.46931 -121.40952 12875 ft 310 kts 286°
2026-05-07 01:53 45.47509 -121.43882 12588 ft 305 kts 286°
2026-05-07 01:54 45.48081 -121.46768 12289 ft 301 kts 285°
2026-05-07 01:54 45.48645 -121.49612 12025 ft 296 kts 285°
2026-05-07 01:54 45.49203 -121.52433 11747 ft 295 kts 286°
2026-05-07 01:54 45.49755 -121.55235 11472 ft 291 kts 286°
2026-05-07 01:55 45.50299 -121.57994 11182 ft 287 kts 286°
2026-05-07 01:55 45.50833 -121.60706 10921 ft 282 kts 286°
2026-05-07 01:55 45.51358 -121.63375 10659 ft 276 kts 285°
2026-05-07 01:55 45.51866 -121.65965 10398 ft 268 kts 285°
2026-05-07 01:56 45.52364 -121.68514 10149 ft 266 kts 285°
2026-05-07 01:56 45.52854 -121.71035 9909 ft 261 kts 284°
2026-05-07 01:56 45.53121 -121.73578 9622 ft 257 kts 275°
2026-05-07 01:56 45.53204 -121.76088 9350 ft 251 kts 274°
2026-05-07 01:57 45.53262 -121.78544 9131 ft 245 kts 273°
2026-05-07 01:57 45.53325 -121.80966 8853 ft 243 kts 273°
2026-05-07 01:57 45.53404 -121.83309 8644 ft 238 kts 274°
2026-05-07 01:57 45.53481 -121.85694 8494 ft 245 kts 274°
2026-05-07 01:58 45.53560 -121.88172 8197 ft 255 kts 274°
2026-05-07 01:58 45.53642 -121.90679 7930 ft 249 kts 274°
2026-05-07 01:58 45.53723 -121.93119 7735 ft 244 kts 274°
2026-05-07 01:58 45.53807 -121.95512 7441 ft 238 kts 274°
2026-05-07 01:59 45.53921 -121.97820 7270 ft 230 kts 276°
2026-05-07 01:59 45.54048 -122.00074 7026 ft 225 kts 276°
2026-05-07 01:59 45.54173 -122.02264 6814 ft 219 kts 275°
2026-05-07 01:59 45.54263 -122.04393 6609 ft 213 kts 270°
2026-05-07 02:00 45.54125 -122.06485 6379 ft 211 kts 264°
2026-05-07 02:00 45.53924 -122.08537 6144 ft 208 kts 264°
2026-05-07 02:00 45.53722 -122.10582 5941 ft 209 kts 264°
2026-05-07 02:00 45.53518 -122.12655 5695 ft 212 kts 263°
2026-05-07 02:01 45.53317 -122.14728 5464 ft 211 kts 262°
2026-05-07 02:01 45.53119 -122.16804 5246 ft 213 kts 263°
2026-05-07 02:01 45.52921 -122.18908 5013 ft 215 kts 262°
2026-05-07 02:01 45.52720 -122.21024 4776 ft 215 kts 262°
2026-05-07 02:02 45.52569 -122.22627 4617 ft 212 kts 262°
2026-05-07 02:02 45.52399 -122.24433 4395 ft 206 kts 262°
2026-05-07 02:02 45.52214 -122.26419 4224 ft 195 kts 262°
2026-05-07 02:02 45.52042 -122.28257 4131 ft 179 kts 262°
2026-05-07 02:03 45.51891 -122.29874 3997 ft 160 kts 262°
2026-05-07 02:03 45.51746 -122.31417 3687 ft 158 kts 262°
2026-05-07 02:03 45.51604 -122.32927 3474 ft 151 kts 262°
2026-05-07 02:03 45.51465 -122.34398 3284 ft 151 kts 262°
2026-05-07 02:04 45.51402 -122.35063 3225 ft 150 kts 263°
2026-05-07 02:04 45.51264 -122.36537 3068 ft 154 kts 263°
2026-05-07 02:04 45.51211 -122.37981 2920 ft 157 kts 282°
2026-05-07 02:04 45.51649 -122.39393 2923 ft 156 kts 299°
2026-05-07 02:05 45.52166 -122.40732 2776 ft 155 kts 298°
2026-05-07 02:05 45.52692 -122.42101 2378 ft 156 kts 300°
2026-05-07 02:05 45.53198 -122.43400 2112 ft 144 kts 300°
2026-05-07 02:05 45.53679 -122.44649 1930 ft 147 kts 301°
2026-05-07 02:06 45.54170 -122.45924 1734 ft 144 kts 300°
2026-05-07 02:06 45.54653 -122.47171 1533 ft 144 kts 300°
2026-05-07 02:06 45.55141 -122.48394 1355 ft 140 kts 301°
2026-05-07 02:06 45.55614 -122.49594 1180 ft 140 kts 301°
2026-05-07 02:07 45.56084 -122.50806 1007 ft 139 kts 301°
2026-05-07 02:07 45.56750 -122.52521 732 ft 137 kts 301°
2026-05-07 02:07 45.57201 -122.53696 500 ft 134 kts 299°
2026-05-07 02:08 45.57620 -122.54870 353 ft 131 kts 301°
2026-05-07 02:08 45.58063 -122.55986 212 ft 128 kts 301°
2026-05-07 02:08 45.58354 -122.56731 95 ft 133 kts 303°
2026-05-07 02:08 45.58708 -122.57575 30 ft 112 kts 295°
2026-05-07 02:09 45.58973 -122.58259 30 ft 74 kts 300°
2026-05-07 02:09 45.59105 -122.58598 31 ft 0 kts 299°
2026-05-07 02:09 45.59105 -122.58599 31 ft 0 kts 299°
2026-05-07 02:09 45.59107 -122.58603 31 ft 0 kts 299°
2026-05-07 02:10 45.59114 -122.58620 29 ft 13 kts 299°
2026-05-07 02:10 45.59204 -122.58937 31 ft 31 kts 282°
2026-05-07 02:10 45.59212 -122.59136 31 ft 12 kts 266°
2026-05-07 02:10 45.59212 -122.59148 31 ft 0 kts 266°
2026-05-07 02:11 45.59212 -122.59149 31 ft 0 kts 266°
2026-05-07 02:11 45.59211 -122.59158 31 ft 1 kts 266°
2026-05-07 02:11 45.59211 -122.59172 31 ft 2 kts 267°
2026-05-07 02:11 45.59210 -122.59184 30 ft 2 kts 267°
2026-05-07 02:12 45.59209 -122.59195 30 ft 0 kts 258°
2026-05-07 02:12 45.59187 -122.59248 30 ft 33 kts 237°
2026-05-07 02:12 45.59169 -122.59286 28 ft 0 kts 216°
2026-05-07 02:12 45.59167 -122.59284 29 ft 0 kts 184°
2026-05-07 02:13 45.59153 -122.59267 30 ft 14 kts 130°
2026-05-07 02:13 45.59105 -122.59132 30 ft 0 kts 120°
2026-05-07 02:14 45.59104 -122.59130 30 ft 0 kts 120°
2026-05-07 02:14 45.59081 -122.59074 30 ft 30 kts 120°
2026-05-07 02:14 45.58997 -122.58857 30 ft 16 kts 118°
2026-05-07 02:15 45.58964 -122.58784 30 ft 0 kts 143°
2026-05-07 02:15 45.58955 -122.58783 30 ft 2 kts 171°
2026-05-07 02:15 45.58921 -122.58798 28 ft 13 kts 214°
2026-05-07 02:15 45.58893 -122.58826 28 ft 0 kts 212°
2026-05-07 02:16 45.58894 -122.58826 28 ft 1 kts 212°
2026-05-07 02:16 45.58902 -122.58818 29 ft 6 kts 211°
2026-05-07 02:16 45.58904 -122.58815 29 ft 0 kts 211°
2026-05-07 02:16 45.58904 -122.58816 29 ft 0 kts 208°
2026-05-07 02:17 45.58903 -122.58816 29 ft 0 kts 210°